Temperature
19 19 18 18 18 18 18 19 18 18 18 18 18 17 17 17 17 17 17 17 17 16 16 16 16 16 16 16 16 16 16 16 16 16 16 16 16 16 16 16 16 15 15
20 19 18 18 18 18 18 18 18 18 17 17 17 17 17 17 17 17 17 17 17 16 16 16 16 16 16 16 16 16 16 16 16 16 16 16 16 16 16 16 16 15 15
20 19 18 18 18 18 18 18 18 17 17 17 17 17 17 17 17 17 17 17 16 16 16 16 16 16 16 16 16 16 16 16 16 15 16 16 16 16 16 16 15 15 15
19 19 18 18 18 18 17 17 17 17 17 17 17 17 16 16 16 16 16 16 16 16 16 16 16 16 16 16 16 16 16 16 16 16 16 16 16 15 15 15 15 15 15
18 18 18 18 18 17 17 17 17 17 17 16 16 16 16 16 16 16 16 16 16 16 16 16 16 16 16 15 15 16 16 15 15 16 15 16 15 15 15 15 15 15 15
18 18 18 18 17 17 17 17 17 17 16 16 16 16 16 16 16 16 16 16 16 16 16 16 16 15 15 15 15 15 15 15 15 15 15 15 15 15 15 15 15 15 15
17 17 17 17 17 17 17 17 17 16 16 16 16 16 16 16 16 16 16 16 16 16 16 16 16 15 15 15 15 15 15 15 15 15 15 15 15 15 15 15 15 15 14
17 17 17 17 17 17 17 16 16 16 16 16 16 16 15 15 16 16 16 16 16 16 16 16 16 15 15 15 15 15 15 15 15 15 15 15 15 15 15 15 14 14 14
16 16 16 16 16 16 16 16 16 16 16 16 15 15 15 15 16 16 16 16 16 16 16 16 16 15 15 15 15 15 15 15 15 15 15 15 15 15 14 14 14 14 14
16 16 16 16 16 16 16 16 16 16 16 15 15 15 15 15 15 16 16 16 16 16 16 16 16 15 15 15 15 15 15 15 15 15 15 15 15 15 14 14 14 14 14
15 15 15 15 15 15 15 15 15 15 15 15 15 15 15 15 15 15 15 16 16 16 16 16 15 15 15 15 15 15 15 15 15 15 15 15 15 14 14 14 14 14 14
15 15 15 15 15 15 15 15 15 15 15 15 15 15 15 15 15 15 15 15 15 15 16 15 15 15 15 15 15 15 15 15 15 15 15 15 14 14 14 14 14 14 14
14 14 14 14 14 14 14 14 14 14 14 15 15 15 15 15 15 15 15 15 15 15 15 15 15 15 15 15 15 15 15 15 15 15 15 14 14 14 14 14 14 14 13
14 14 14 14 14 14 14 14 14 14 14 15 15 15 15 15 15 15 15 15 15 15 15 15 15 15 15 15 14 14 14 14 14 14 14 14 14 14 14 14 14 14 13
13 13 13 14 14 14 14 14 14 14 14 14 14 14 15 15 15 15 15 15 15 15 15 15 15 15 15 14 14 14 14 14 14 14 14 14 14 14 14 14 14 13 13
13 13 13 13 13 13 13 14 14 14 14 14 14 14 14 15 15 15 15 15 15 15 15 15 15 15 14 14 14 14 14 14 14 14 14 14 14 14 14 14 13 13 13
12 13 13 13 13 13 13 13 14 14 14 14 14 14 14 14 15 15 15 15 15 15 15 15 15 14 14 14 14 14 14 14 14 14 14 14 14 14 14 14 13 13 13
12 12 12 13 12 12 13 13 13 13 14 14 14 14 14 14 14 15 15 15 15 15 15 15 14 14 14 14 14 14 14 14 14 14 14 14 14 14 14 13 13 13 13
12 12 12 12 12 12 12 13 13 13 13 14 14 14 14 14 14 14 15 15 15 14 14 14 14 14 14 14 14 14 14 14 14 14 14 14 14 14 13 13 13 13 13
11 11 12 12 12 12 12 12 12 13 13 13 13 14 14 14 14 14 14 14 14 14 14 14 14 14 14 14 13 13 13 13 14 14 14 14 14 14 13 13 13 13 12
11 11 11 12 12 12 12 12 12 12 13 13 13 13 13 13 14 14 14 14 14 14 14 14 14 14 13 13 13 13 13 13 13 13 13 14 14 13 13 13 13 13 12
11 11 11 11 12 12 12 12 12 12 13 13 13 13 13 13 13 13 14 14 14 14 14 14 14 13 13 13 13 13 12 12 13 13 13 13 13 13 13 13 13 13 12
10 10 11 11 11 12 12 12 12 12 12 12 12 13 13 13 13 13 13 14 14 14 14 14 13 13 13 13 13 13 13 13 13 13 13 13 13 13 13 13 13 12 12
10 10 10 11 11 11 11 11 11 11 11 12 12 12 12 13 13 13 13 13 13 13 13 13 13 13 13 13 13 13 13 13 13 12 12 12 12 12 12 12 12 12 12
10 10 10 10 10 11 11 11 11 11 11 12 12 12 12 12 12 12 13 13 13 13 13 13 13 13 13 13 13 13 13 13 13 13 12 12 12 12 12 12 12 11 11
9 9 10 10 10 10 10 10 10 11 11 11 11 12 12 12 12 12 12 12 12 13 12 13 13 13 13 13 13 13 13 13 13 13 12 12 12 12 11 11 11 11 11
Wind_Speed
9 15 23 23 23 22 22 22 22 21 21 21 21 20 21 21 22 21 21 20 20 19 19 19 20 20 20 20 20 20 20 20 20 19 19 19 19 18 18 18 17 17 19
14 20 24 24 23 22 22 22 22 21 21 21 21 21 21 21 21 21 21 20 20 20 20 20 20 20 20 20 20 20 20 19 20 19 19 18 18 18 18 17 17 16 18
16 20 24 24 23 22 22 22 22 22 21 21 21 21 21 21 21 21 20 20 20 20 19 20 19 19 19 19 19 18 18 17 17 17 16 15 16 17 17 17 17 17 17
15 17 21 24 23 23 22 22 22 22 22 21 21 21 21 21 20 20 20 20 20 20 20 19 19 18 18 17 16 15 15 15 15 15 13 13 14 16 17 17 17 17 17
12 15 18 23 23 23 22 22 23 22 22 22 21 21 21 21 20 20 20 20 20 20 20 19 18 18 16 15 15 14 15 16 16 15 14 13 13 15 16 16 16 16 15
10 12 17 21 23 22 22 22 23 23 22 22 22 21 21 21 21 20 20 20 20 20 19 18 17 16 15 13 13 15 16 17 16 14 13 12 12 14 14 14 14 14 14
8 9 16 20 22 22 22 22 23 23 23 22 22 22 21 21 21 21 21 21 20 20 19 18 16 15 13 13 14 15 16 16 15 13 11 11 12 13 13 13 13 13 13
8 8 14 19 20 21 22 22 22 22 22 22 22 22 22 21 22 22 21 20 20 19 18 17 16 14 12 12 13 15 16 15 13 11 10 10 12 12 12 12 12 12 12
7 8 8 14 16 19 21 21 22 22 22 22 22 22 22 22 22 22 21 21 20 19 18 17 15 13 12 12 12 13 14 13 12 10 9 9 11 11 11 11 11 11 11
6 7 7 9 12 13 17 20 20 20 21 21 21 21 22 22 22 22 21 21 20 19 17 16 14 13 11 11 12 13 13 12 11 9 8 9 10 10 10 9 9 9 9
6 5 7 7 9 11 13 17 18 18 20 20 19 21 21 19 20 20 20 21 20 19 17 15 14 12 10 10 10 11 10 10 10 9 8 9 9 9 8 8 8 8 8
7 6 6 7 9 9 11 12 13 14 15 15 16 18 17 17 17 18 20 21 19 18 17 15 13 11 9 7 8 8 8 10 9 8 8 9 9 8 8 7 6 6 6
7 7 7 7 7 8 7 9 8 10 11 13 15 17 16 16 15 15 15 16 17 16 13 12 11 9 8 6 5 6 8 9 9 8 8 9 8 8 7 6 6 5 5
6 6 6 7 7 8 8 7 7 7 7 9 14 16 15 10 10 11 11 13 13 12 11 10 8 8 7 6 6 7 8 8 9 9 9 9 8 7 7 6 5 4 4
6 5 5 6 6 7 8 7 8 7 8 10 13 15 15 10 9 9 10 12 12 12 11 9 8 7 6 5 6 7 7 9 10 10 9 9 9 8 7 6 5 4 3
5 6 5 5 6 6 7 7 7 8 9 10 12 15 17 13 11 10 9 9 11 13 12 10 8 6 5 5 5 7 8 9 10 10 10 9 9 8 7 6 5 4 3
6 6 6 6 5 6 7 9 8 8 9 8 10 15 16 16 14 11 10 9 11 14 13 9 7 6 4 4 4 6 7 8 9 9 9 9 9 8 8 7 5 4 3
5 6 6 6 6 6 6 7 8 9 9 8 11 14 16 16 16 12 9 9 13 14 10 6 6 5 5 4 4 4 4 5 7 8 8 8 8 8 8 7 6 4 3
4 5 5 6 7 7 6 6 8 8 9 8 10 11 14 16 17 13 9 10 14 10 7 8 6 5 5 5 5 4 3 3 4 6 6 8 9 8 8 7 6 5 4
4 4 5 6 7 7 5 5 6 7 7 7 8 10 14 15 16 13 9 10 12 9 8 7 7 6 5 6 4 3 2 2 2 3 5 6 7 8 8 7 6 5 4
4 5 6 6 6 6 5 5 6 8 8 8 7 10 13 13 15 11 9 9 10 10 10 9 6 7 5 4 4 2 1 0 2 2 3 4 5 7 8 8 7 7 5
5 5 5 6 6 7 6 5 4 6 6 7 6 7 11 13 13 12 10 10 10 9 9 9 7 5 4 5 5 4 2 1 2 2 2 4 4 5 6 7 8 7 6
3 5 5 5 5 6 6 4 4 5 4 5 6 6 8 11 13 12 11 9 10 10 10 10 9 7 6 5 5 5 4 5 2 1 2 3 4 4 4 6 7 7 7
3 3 4 4 5 4 4 4 7 7 7 6 6 6 7 10 11 12 11 10 10 10 10 10 9 6 8 6 4 3 3 4 4 2 2 2 4 5 5 4 5 6 7
2 3 3 2 3 4 4 5 6 6 5 5 5 6 7 8 9 10 10 10 10 9 10 10 9 8 7 6 5 3 2 1 2 3 3 3 2 3 4 4 5 5 7
1 1 2 2 2 3 4 5 6 7 7 7 6 7 7 6 7 9 9 9 9 9 10 10 10 10 8 7 6 4 4 4 4 3 4 4 4 3 2 3 4 5 6
Wind_Direction
169 166 168 164 160 156 151 147 144 141 138 136 133 131 130 128 127 126 126 125 122 121 118 114 111 108 106 104 102 99 96 91 88 85 84 84 85 85 83 79 75 71 74
161 164 166 165 161 159 155 151 148 145 143 141 139 137 135 133 132 131 130 128 126 123 121 117 114 111 109 108 106 103 99 95 92 88 85 84 85 86 84 82 80 78 76
155 163 164 164 162 160 158 155 152 149 148 146 144 143 141 139 136 135 133 131 128 125 122 119 116 114 113 111 108 105 102 99 97 92 88 87 88 88 86 84 83 81 78
153 161 164 164 163 162 160 158 156 154 153 151 149 148 146 143 141 139 136 134 130 125 123 120 119 117 115 113 109 106 104 101 99 96 87 85 89 91 89 86 84 82 80
151 157 162 164 164 163 161 160 160 159 158 155 154 152 150 148 146 143 139 135 131 126 124 123 123 120 116 111 106 104 104 105 103 97 90 87 89 92 90 87 85 84 82
151 157 162 163 165 164 164 163 164 163 162 159 158 156 153 151 147 145 140 135 132 129 128 127 127 124 118 111 106 105 107 108 105 99 94 92 93 96 94 91 88 86 83
149 157 165 163 166 166 167 167 166 166 165 163 161 159 157 154 150 146 141 137 136 133 132 132 132 129 120 112 108 109 111 112 109 104 100 99 100 99 97 94 91 87 85
150 155 168 168 165 167 168 168 167 166 167 165 164 162 159 155 151 147 143 141 140 139 137 136 136 133 124 115 112 114 115 114 114 109 107 106 106 102 98 95 93 91 88
148 152 162 169 168 169 166 166 168 167 168 168 167 164 159 155 152 149 147 146 144 143 141 141 141 138 130 122 119 118 119 120 119 119 115 114 112 107 103 100 97 95 92
145 153 160 166 166 169 168 167 167 168 168 168 166 162 158 155 153 152 150 149 147 145 145 145 146 144 135 126 122 122 122 122 122 125 124 124 121 115 109 105 103 100 96
154 158 160 169 165 164 168 170 166 165 166 165 163 159 156 155 154 153 152 151 149 149 149 151 152 149 141 130 126 128 126 132 132 133 136 136 132 124 119 114 111 106 100
175 173 162 170 170 162 168 165 165 166 164 162 160 158 156 154 155 156 154 152 152 152 153 156 157 154 148 137 134 136 138 143 143 144 147 147 142 134 127 124 120 114 110
183 177 172 166 169 165 165 162 163 164 163 161 160 159 157 154 154 153 154 154 155 155 156 159 159 163 163 155 148 148 151 151 154 156 157 155 151 146 141 138 134 126 121
189 178 176 168 169 169 163 165 162 162 165 166 167 164 160 157 156 159 160 160 162 164 162 165 168 175 180 182 173 164 163 160 163 163 165 162 160 159 158 154 152 151 149
190 172 162 164 165 173 165 170 169 170 173 172 172 171 167 164 164 164 165 166 169 170 170 171 177 181 187 189 179 171 168 168 170 169 169 171 170 170 171 172 172 171 171
189 174 162 162 164 171 172 170 169 173 175 175 177 177 174 170 170 170 169 172 176 177 178 179 184 185 188 179 170 169 168 167 170 170 174 179 182 182 183 186 183 184 187
192 174 169 164 163 170 180 176 169 171 174 180 180 177 178 175 174 175 175 178 181 182 180 181 184 181 176 170 168 162 160 163 169 175 180 184 188 192 194 194 192 190 196
196 179 176 174 170 177 185 185 175 174 174 183 184 181 180 180 177 177 179 182 182 180 179 178 177 176 179 169 164 168 161 161 169 178 183 188 188 189 194 197 195 196 202
204 191 182 181 175 181 184 188 183 177 179 181 186 185 184 182 180 179 183 185 182 180 182 185 179 173 172 169 165 163 168 172 173 176 179 188 189 188 188 189 189 190 192
222 203 186 183 179 179 181 186 182 177 182 181 187 191 186 185 182 180 181 185 182 182 186 183 175 173 170 165 156 152 171 184 174 175 179 181 186 188 185 180 179 184 194
215 209 200 189 181 177 180 191 187 186 186 185 187 194 189 187 184 182 184 183 184 188 187 179 171 170 168 153 130 121 11 305 200 198 175 168 174 177 176 179 180 181 184
214 212 210 200 188 184 188 193 194 181 184 184 182 191 191 186 187 188 185 186 184 185 183 179 167 167 172 168 154 146 176 265 267 225 193 187 181 168 167 175 175 177 178
222 208 202 201 204 196 190 184 186 170 163 175 185 193 196 189 189 191 191 188 186 184 187 185 179 173 178 186 176 168 174 204 198 242 216 200 188 183 179 173 176 180 180
214 211 208 194 194 187 181 188 190 185 187 190 186 194 193 188 188 191 191 189 191 187 187 188 185 182 175 186 192 204 197 163 169 193 235 220 202 196 193 181 174 175 175
219 205 204 179 190 181 182 192 193 193 195 186 181 191 196 191 187 187 189 189 192 191 190 188 187 185 185 188 190 185 194 200 185 179 206 212 220 214 194 182 173 168 171
275 208 183 145 164 186 193 198 193 196 195 188 191 197 200 196 194 189 190 193 195 192 193 193 191 189 193 192 193 191 186 184 196 191 202 203 211 211 189 180 176 171 168
Height
1493 1496 1499 1503 1506 1508 1510 1512 1514 1517 1519 1522 1524 1526 1528 1530 1532 1533 1535 1536 1538 1539 1540 1541 1543 1544 1545 1545 1546 1547 1547 1548 1548 1549 1549 1549 1549 1549 1549 1549 1549 1548 1548
1491 1495 1499 1502 1505 1508 1510 1512 1514 1516 1519 1521 1524 1526 1528 1530 1532 1534 1535 1537 1539 1540 1542 1543 1544 1545 1546 1547 1548 1549 1549 1550 1550 1551 1551 1551 1551 1551 1551 1551 1551 1550 1550
1491 1494 1497 1501 1504 1507 1510 1512 1514 1516 1519 1521 1524 1526 1529 1531 1533 1534 1536 1538 1540 1541 1543 1544 1545 1547 1548 1549 1550 1550 1551 1552 1552 1553 1553 1553 1553 1553 1553 1553 1552 1552 1552
1492 1494 1496 1500 1503 1506 1509 1512 1514 1516 1518 1521 1524 1526 1529 1531 1533 1535 1537 1539 1540 1542 1544 1545 1547 1548 1550 1551 1551 1552 1553 1553 1554 1555 1555 1555 1555 1555 1555 1554 1554 1554 1553
1492 1494 1496 1499 1502 1505 1508 1511 1514 1516 1518 1521 1524 1526 1529 1531 1533 1535 1537 1539 1541 1543 1545 1547 1548 1550 1551 1552 1553 1554 1554 1555 1556 1556 1556 1557 1556 1557 1556 1556 1556 1555 1555
1491 1494 1496 1498 1502 1505 1508 1510 1513 1516 1518 1521 1524 1526 1529 1531 1534 1536 1538 1540 1542 1544 1546 1548 1549 1551 1552 1554 1554 1555 1556 1557 1557 1558 1558 1558 1558 1558 1558 1558 1557 1557 1557
1490 1493 1496 1498 1501 1504 1507 1510 1512 1515 1518 1520 1523 1526 1529 1531 1534 1536 1538 1540 1542 1544 1546 1548 1551 1552 1554 1555 1556 1557 1558 1558 1559 1559 1560 1560 1559 1559 1559 1559 1559 1558 1558
1489 1491 1495 1497 1500 1502 1506 1509 1512 1514 1517 1520 1523 1526 1529 1531 1534 1536 1538 1541 1543 1545 1547 1549 1551 1553 1555 1556 1557 1558 1559 1560 1560 1560 1561 1561 1561 1561 1561 1560 1560 1560 1559
1488 1490 1493 1495 1498 1501 1504 1507 1511 1514 1516 1519 1522 1525 1528 1531 1534 1536 1539 1541 1543 1546 1548 1550 1552 1554 1556 1557 1558 1559 1560 1561 1561 1562 1562 1562 1562 1562 1562 1562 1561 1561 1561
1487 1489 1491 1494 1497 1500 1503 1506 1509 1513 1516 1519 1522 1524 1527 1530 1533 1536 1538 1541 1544 1546 1548 1550 1552 1554 1556 1557 1559 1560 1561 1562 1562 1563 1563 1563 1563 1563 1563 1563 1562 1562 1562
1484 1487 1489 1492 1495 1497 1501 1504 1508 1511 1514 1518 1521 1524 1527 1530 1533 1535 1538 1541 1543 1546 1548 1551 1553 1555 1556 1558 1559 1560 1561 1562 1563 1563 1564 1564 1564 1564 1564 1563 1563 1563 1562
1481 1484 1486 1489 1492 1495 1498 1501 1505 1509 1512 1516 1519 1522 1525 1528 1531 1534 1537 1540 1543 1545 1548 1550 1553 1555 1556 1558 1559 1560 1562 1563 1563 1564 1564 1564 1564 1564 1564 1564 1564 1564 1563
1478 1481 1483 1486 1489 1492 1495 1498 1502 1506 1510 1513 1517 1520 1523 1527 1530 1533 1536 1539 1542 1545 1547 1549 1552 1554 1556 1557 1559 1560 1561 1562 1563 1564 1564 1565 1565 1565 1565 1564 1564 1564 1564
1476 1478 1481 1483 1485 1489 1493 1496 1499 1502 1507 1510 1514 1518 1521 1525 1528 1531 1534 1537 1540 1543 1546 1548 1551 1553 1555 1557 1558 1560 1561 1562 1563 1564 1564 1565 1565 1565 1565 1564 1564 1564 1563
1473 1475 1477 1480 1482 1486 1490 1493 1496 1500 1504 1508 1512 1515 1519 1522 1526 1529 1532 1536 1539 1542 1544 1547 1550 1552 1554 1556 1558 1559 1560 1561 1562 1563 1563 1564 1564 1564 1564 1564 1564 1563 1563
1470 1472 1474 1477 1479 1483 1486 1490 1493 1498 1501 1505 1509 1512 1516 1520 1524 1527 1530 1533 1537 1540 1543 1545 1548 1551 1553 1555 1556 1558 1559 1560 1561 1562 1562 1563 1563 1563 1563 1563 1563 1562 1562
1467 1469 1471 1473 1475 1479 1483 1487 1490 1494 1499 1502 1506 1509 1513 1517 1521 1524 1527 1531 1534 1538 1541 1544 1546 1549 1551 1553 1555 1556 1558 1559 1560 1560 1561 1561 1562 1562 1562 1562 1562 1561 1561
1464 1465 1467 1470 1473 1476 1480 1483 1487 1491 1495 1499 1502 1506 1510 1513 1517 1521 1524 1528 1531 1535 1538 1541 1543 1546 1548 1551 1552 1554 1556 1557 1558 1558 1559 1559 1560 1560 1560 1560 1560 1560 1559
1460 1462 1464 1467 1470 1473 1476 1479 1483 1487 1491 1495 1498 1502 1506 1510 1514 1517 1521 1525 1528 1531 1534 1538 1540 1543 1545 1548 1550 1552 1553 1554 1555 1556 1556 1557 1557 1557 1558 1558 1558 1558 1557
1457 1459 1460 1463 1467 1469 1473 1475 1479 1483 1487 1490 1494 1498 1501 1506 1509 1513 1517 1521 1524 1527 1530 1534 1537 1540 1543 1545 1547 1549 1551 1552 1553 1553 1554 1554 1554 1555 1555 1555 1555 1555 1555
1454 1455 1457 1459 1462 1465 1468 1471 1473 1477 1481 1486 1489 1493 1497 1501 1505 1508 1512 1516 1519 1523 1526 1529 1533 1536 1539 1542 1544 1546 1547 1549 1549 1550 1550 1551 1551 1551 1552 1552 1552 1552 1552
1452 1453 1454 1455 1457 1460 1464 1467 1469 1473 1477 1481 1484 1488 1492 1496 1500 1503 1507 1511 1514 1518 1521 1525 1528 1531 1534 1537 1539 1542 1543 1545 1545 1546 1546 1547 1548 1548 1548 1549 1549 1549 1549
1449 1449 1451 1452 1454 1456 1460 1463 1465 1469 1472 1476 1479 1483 1487 1491 1495 1499 1503 1506 1510 1513 1516 1519 1523 1526 1529 1532 1535 1537 1538 1538 1540 1542 1542 1543 1544 1544 1545 1545 1545 1545 1545
1446 1447 1449 1450 1452 1453 1456 1459 1461 1463 1466 1470 1474 1478 1482 1486 1489 1494 1497 1501 1504 1508 1511 1515 1518 1521 1524 1526 1529 1532 1534 1534 1536 1536 1538 1539 1539 1540 1541 1541 1541 1541 1541
1445 1446 1446 1447 1449 1450 1452 1455 1457 1460 1463 1467 1471 1474 1478 1481 1484 1488 1492 1496 1499 1503 1506 1510 1513 1516 1519 1521 1523 1526 1528 1529 1531 1532 1532 1534 1535 1535 1536 1537 1537 1537 1537
1443 1444 1444 1445 1446 1447 1449 1451 1453 1456 1460 1463 1466 1469 1472 1476 1479 1483 1488 1491 1494 1497 1501 1504 1508 1511 1513 1516 1518 1521 1522 1524 1525 1527 1527 1528 1530 1531 1531 1532 1532 1532 1533